When you browse on this site, cookies collect data to enhance your experience and personalize the content and advertising you see.
Visit our Privacy Policy to learn more. By continuing to use the site, you agree to this use of cookies and data.
  • In Romania
  • List of Countries
  • For 7 days
  • Water Temperature
  • Satellite Maps
  • Weather Map
  • Weather Widgets
  • user-avatar
    Login

    Hourly Weather Mandelieu-la-Napoule

    Today, 19 June, Wednesday

    Time Temperature Precipitation Wind Pressure Humidity
    00:00 +23°C° 0 mm 2 mps 753 mmHg 55%
    01:00 +21°C° 0 mm 2 mps 752 mmHg 54%
    02:00 +21°C° 0 mm 2 mps 752 mmHg 54%
    03:00 +22°C° 0 mm 1 mps 752 mmHg 53%
    04:00 +23°C° 0 mm 1 mps 752 mmHg 52%
    05:00 +24°C° 0 mm 1 mps 752 mmHg 51%
    06:00 +26°C° 0 mm 1 mps 752 mmHg 51%
    07:00 +27°C° 0 mm 1 mps 752 mmHg 46%
    08:00 +29°C° 0 mm 1 mps 752 mmHg 40%
    09:00 +30°C° 0 mm 2 mps 752 mmHg 34%
    10:00 +31°C° 0 mm 3 mps 752 mmHg 33%
    11:00 +31°C° 0 mm 3 mps 752 mmHg 31%
    12:00 +33°C° 0 mm 4 mps 752 mmHg 29%
    13:00 +33°C° 0 mm 4 mps 752 mmHg 28%
    14:00 +33°C° 0 mm 5 mps 752 mmHg 28%
    15:00 +33°C° 0 mm 5 mps 751 mmHg 27%
    16:00 +32°C° 0 mm 5 mps 751 mmHg 29%
    17:00 +29°C° 0 mm 5 mps 751 mmHg 32%
    18:00 +28°C° 0 mm 5 mps 751 mmHg 35%
    19:00 +26°C° 0 mm 5 mps 751 mmHg 37%
    20:00 +25°C° 0 mm 4 mps 751 mmHg 39%
    21:00 +22°C° 0 mm 4 mps 751 mmHg 41%
    22:00 +22°C° 0 mm 4 mps 751 mmHg 43%
    23:00 +21°C° 0 mm 3 mps 751 mmHg 45%

    Tomorrow, 20 June, Thursday

    Time Temperature Precipitation Wind Pressure Humidity
    00:00 +21°C° 0 mm 3 mps 751 mmHg 46%
    01:00 +21°C° 0 mm 3 mps 751 mmHg 46%
    02:00 +20°C° 0 mm 2 mps 751 mmHg 45%
    03:00 +20°C° 0 mm 2 mps 751 mmHg 45%
    04:00 +21°C° 0 mm 2 mps 751 mmHg 44%
    05:00 +23°C° 0 mm 1 mps 751 mmHg 44%
    06:00 +22°C° 0 mm 0 mps 751 mmHg 44%
    07:00 +26°C° 0 mm 1 mps 751 mmHg 41%
    08:00 +27°C° 0 mm 1 mps 751 mmHg 38%
    09:00 +29°C° 0 mm 2 mps 751 mmHg 36%
    10:00 +30°C° 0 mm 2 mps 751 mmHg 35%
    11:00 +30°C° 0 mm 3 mps 751 mmHg 35%
    12:00 +31°C° 0 mm 3 mps 751 mmHg 34%
    13:00 +31°C° 0 mm 3 mps 751 mmHg 36%
    14:00 +30°C° 0 mm 3 mps 751 mmHg 38%
    15:00 +30°C° 0 mm 4 mps 750 mmHg 40%
    16:00 +29°C° 0 mm 3 mps 751 mmHg 46%
    17:00 +27°C° 0 mm 3 mps 751 mmHg 53%
    18:00 +26°C° 0 mm 2 mps 751 mmHg 59%
    19:00 +25°C° 0 mm 2 mps 751 mmHg 63%
    20:00 +24°C° 0 mm 2 mps 751 mmHg 66%
    21:00 +23°C° 0 mm 1 mps 751 mmHg 70%
    22:00 +22°C° 0 mm 1 mps 752 mmHg 73%
    23:00 +22°C° 0 mm 1 mps 752 mmHg 76%

    Day after tomorrow, 21 June, Friday

    Time Temperature Precipitation Wind Pressure Humidity
    00:00 +20°C° 0 mm 2 mps 752 mmHg 79%
    01:00 +20°C° 0 mm 2 mps 752 mmHg 79%
    02:00 +20°C° 0 mm 2 mps 752 mmHg 79%
    03:00 +20°C° 0 mm 2 mps 752 mmHg 79%
    04:00 +21°C° 0 mm 2 mps 752 mmHg 77%
    05:00 +23°C° 0 mm 2 mps 752 mmHg 75%
    06:00 +24°C° 0 mm 2 mps 752 mmHg 72%
    07:00 +25°C° 0 mm 3 mps 752 mmHg 67%
    08:00 +26°C° 0 mm 3 mps 752 mmHg 62%
    09:00 +28°C° 0 mm 3 mps 752 mmHg 57%
    10:00 +28°C° 0 mm 3 mps 752 mmHg 57%
    11:00 +28°C° 0 mm 3 mps 752 mmHg 56%
    12:00 +29°C° 0 mm 3 mps 752 mmHg 56%
    13:00 +29°C° 0.1 mm 3 mps 752 mmHg 55%
    14:00 +29°C° 0.1 mm 3 mps 752 mmHg 54%
    15:00 +29°C° 0.1 mm 3 mps 751 mmHg 54%
    16:00 +28°C° 0.1 mm 2 mps 751 mmHg 58%
    17:00 +27°C° 0.1 mm 2 mps 751 mmHg 62%
    18:00 +26°C° 0.1 mm 1 mps 751 mmHg 66%
    19:00 +25°C° 0.1 mm 1 mps 751 mmHg 72%
    20:00 +21°C° 0.1 mm 0 mps 751 mmHg 78%
    21:00 +20°C° 0.1 mm 0 mps 752 mmHg 84%
    22:00 +20°C° 0 mm 0 mps 752 mmHg 84%
    23:00 +19°C° 0 mm 0 mps 752 mmHg 84%

    22 June, Saturday

    Time Temperature Precipitation Wind Pressure Humidity
    00:00 +21°C° 0 mm 1 mps 752 mmHg 84%
    01:00 +19°C° 0 mm 0 mps 751 mmHg 85%
    02:00 +19°C° 0 mm 0 mps 751 mmHg 85%
    03:00 +18°C° 0 mm 0 mps 751 mmHg 86%
    04:00 +20°C° 0 mm 0 mps 751 mmHg 81%
    05:00 +21°C° 0 mm 0 mps 751 mmHg 75%
    06:00 +24°C° 0 mm 1 mps 751 mmHg 70%
    07:00 +26°C° 0 mm 1 mps 751 mmHg 65%
    08:00 +27°C° 0 mm 2 mps 751 mmHg 60%
    09:00 +28°C° 0 mm 2 mps 751 mmHg 55%
    10:00 +29°C° 0.1 mm 3 mps 751 mmHg 55%
    11:00 +29°C° 0.1 mm 3 mps 751 mmHg 54%
    12:00 +29°C° 0.1 mm 4 mps 751 mmHg 54%
    13:00 +29°C° 0 mm 3 mps 751 mmHg 54%
    14:00 +29°C° 0 mm 3 mps 751 mmHg 54%
    15:00 +29°C° 0 mm 3 mps 751 mmHg 54%
    16:00 +28°C° 0 mm 3 mps 751 mmHg 58%
    17:00 +27°C° 0 mm 2 mps 751 mmHg 61%
    18:00 +27°C° 0 mm 2 mps 751 mmHg 65%
    19:00 +25°C° 0 mm 2 mps 751 mmHg 68%
    20:00 +24°C° 0 mm 2 mps 751 mmHg 70%
    21:00 +23°C° 0 mm 2 mps 752 mmHg 73%
    22:00 +23°C° 0 mm 2 mps 751 mmHg 74%
    23:00 +21°C° 0 mm 2 mps 751 mmHg 75%

    23 June, Sunday

    Time Temperature Precipitation Wind Pressure Humidity
    00:00 +21°C° 0 mm 2 mps 751 mmHg 76%
    01:00 +22°C° 0 mm 1 mps 751 mmHg 74%
    02:00 +21°C° 0 mm 1 mps 751 mmHg 72%
    03:00 +21°C° 0 mm 1 mps 751 mmHg 70%
    04:00 +23°C° 0 mm 1 mps 752 mmHg 66%
    05:00 +24°C° 0 mm 1 mps 752 mmHg 62%
    06:00 +23°C° 0 mm 0 mps 752 mmHg 58%
    07:00 +27°C° 0 mm 1 mps 752 mmHg 55%
    08:00 +28°C° 0 mm 1 mps 752 mmHg 52%
    09:00 +29°C° 0 mm 1 mps 753 mmHg 48%
    10:00 +30°C° 0 mm 2 mps 753 mmHg 47%
    11:00 +31°C° 0 mm 2 mps 753 mmHg 46%
    12:00 +31°C° 0 mm 3 mps 753 mmHg 45%
    13:00 +31°C° 0 mm 3 mps 753 mmHg 46%
    14:00 +31°C° 0 mm 2 mps 753 mmHg 47%
    15:00 +31°C° 0 mm 2 mps 753 mmHg 47%
    16:00 +30°C° 0 mm 2 mps 753 mmHg 52%
    17:00 +29°C° 0 mm 1 mps 753 mmHg 57%
    18:00 +28°C° 0 mm 1 mps 753 mmHg 62%
    19:00 +26°C° 0 mm 1 mps 753 mmHg 67%
    20:00 +25°C° 0 mm 1 mps 754 mmHg 72%
    21:00 +23°C° 0 mm 1 mps 754 mmHg 77%
    22:00 +23°C° 0 mm 1 mps 754 mmHg 74%
    23:00 +23°C° 0 mm 1 mps 754 mmHg 72%

    24 June, Monday

    Time Temperature Precipitation Wind Pressure Humidity
    00:00 +23°C° 0 mm 2 mps 754 mmHg 69%
    01:00 +23°C° 0 mm 1 mps 754 mmHg 69%
    02:00 +23°C° 0 mm 1 mps 754 mmHg 69%
    03:00 +23°C° 0 mm 1 mps 754 mmHg 69%
    04:00 +24°C° 0 mm 1 mps 754 mmHg 65%
    05:00 +26°C° 0 mm 1 mps 754 mmHg 62%
    06:00 +27°C° 0 mm 1 mps 755 mmHg 59%
    07:00 +29°C° 0 mm 2 mps 755 mmHg 53%
    08:00 +31°C° 0 mm 2 mps 755 mmHg 48%
    09:00 +33°C° 0 mm 3 mps 755 mmHg 42%
    10:00 +34°C° 0 mm 3 mps 755 mmHg 40%
    11:00 +34°C° 0 mm 3 mps 755 mmHg 39%
    12:00 +35°C° 0 mm 3 mps 755 mmHg 38%
    13:00 +35°C° 0 mm 3 mps 755 mmHg 38%
    14:00 +34°C° 0 mm 3 mps 755 mmHg 39%
    15:00 +34°C° 0 mm 2 mps 755 mmHg 39%
    16:00 +32°C° 0 mm 2 mps 755 mmHg 43%
    17:00 +32°C° 0 mm 1 mps 755 mmHg 47%
    18:00 +31°C° 0 mm 1 mps 755 mmHg 50%
    19:00 +29°C° 0 mm 1 mps 755 mmHg 53%
    20:00 +28°C° 0 mm 1 mps 755 mmHg 55%
    21:00 +27°C° 0 mm 1 mps 755 mmHg 58%
    22:00 +27°C° 0 mm 2 mps 755 mmHg 59%
    23:00 +26°C° 0 mm 2 mps 755 mmHg 60%
    Show more